Hauptseite
METAR-TAF:

METAR-TAF

Flughäfen :

Heeresflugplatz Celle

Celle, Deutschland

Breite: 52-36N, Länge: 010-01E, Höhe: 39 m

Beobachtung

Neuester Wetterbericht von vor 1 Stunde und 13 Minuten, um 03:20 UTC
Wind 2 kt aus Südwest
Temperatur 7°C
Luftfeuchtigkeit 93%
Luftdruck 1025 hPa
Sichtweite 10 km oder mehr
Durchbrochene Bewölkung in der Höhe von 3100 ft

METAR: ETHC 220320Z 23002KT 9999 BKN031 07/06 Q1025 BLU

Zeit: 06:33 (04:33 UTC)


TAF: fehlend

Wetterbeobachtungen und Prognosen von mehr als 4000 Flughäfen (METAR und TAF Bericht).

Die verfügbaren Stationen werden durch gelbe und rote Markierungen auf der Karte dargestellt.

Führen Sie die Maus auf sie, um den Namen der Station zu sehen.

Darauf klicken, um die Beobachtung von Wetterbeobachtungen und Prognosen zu sehen.

Um die Karte zu ändern : klicken Sie auf den grünen Tasten mit einem schwarzen Kreuz Zum Vergrößern, auf den grünen Button mit einem Gedankenstrich zu verkleinern, oder auf die grünen Pfeile für benachbarte Karten.


METAR-TAF: